[[{"header":{"parameterUnit":"m.s-1","parameterCategory":1,"la1":30.2992,"la2":30.254,"lo1":-89.0895,"lo2":-89.0443,"dy":0.0025,"dx":0.0025,"nx":19,"ny":19,"refTime":"2026-04-19T09:00:00:Z","depth":0,"parameterNumber":2,"parameterNumberName":"U-component_of_WINDS"},"data":[0,0,0,2.9568,2.9576,2.9929,2.993,3.0389,3.0393,0,0,0,0,0,0,0,0,0,0,0,2.9465,2.9468,2.9568,2.9577,2.9929,2.993,3.0389,3.0393,0,0,0,0,0,0,0,0,0,0,0,2.9464,2.9467,2.9471,2.9578,2.9928,2.993,3.0388,3.0119,0,0,0,0,0,0,0,0,0,0,2.9776,2.9681,2.9467,2.9472,2.958,2.9928,2.993,3.0106,3.0136,3.0232,0,3.0315,0,3.0361,3.0424,3.0426,0,0,0,2.9576,2.9656,2.975,2.9472,2.9583,2.9928,2.977,3.0123,3.0157,3.0272,3.0321,3.0338,3.0369,3.0427,3.043,3.0979,3.0982,0,0,2.9557,2.953,2.9727,2.9772,2.9714,2.9758,2.9781,3.0143,3.0197,3.0323,3.0349,3.0376,3.0431,3.0434,3.0977,3.098,0,0,0,2.9501,2.9516,2.9601,2.9753,2.9816,2.9769,2.9794,3.018,3.021,3.0354,3.0382,3.0433,3.0439,3.0974,3.0978,3.108,0,0,0,2.9489,2.9484,2.9593,2.958,2.9809,3.0002,2.9823,3.0185,3.0227,3.038,3.0433,3.0443,3.0971,3.0976,3.1071,3.1132,0,0,0,2.9442,2.9478,2.9529,2.9577,2.9728,2.9996,3.0047,3.0195,3.0245,3.0426,3.0445,3.0969,3.0975,3.1063,3.1119,3.1271,0,0,0,2.9384,2.9614,2.953,2.9799,2.9725,3.0056,3.0045,3.0293,3.0461,3.0436,3.0972,3.0978,3.106,3.1111,3.1262,3.1394,3.1445,0,0,2.9659,2.9646,2.9807,2.9742,3.0081,3.0004,3.036,3.054,3.0583,3.0846,3.086,3.1074,3.1119,3.1269,3.1744,3.1785,0,0,0,2.9885,3.0,3.0096,3.0254,3.0397,3.0526,3.0654,3.0722,3.0947,3.0711,3.117,3.1197,3.1287,3.1351,3.1386,3.1466,3.1006,3.1005,3.1004,3.0235,3.0278,3.0548,3.0634,3.0789,3.0921,3.1052,3.1166,3.1163,3.1272,3.1349,3.1632,3.1706,3.1733,3.1815,3.1422,3.1422,3.1423,3.1423,3.0644,3.0814,3.0808,3.1067,3.1113,3.1333,3.1472,3.1463,3.1677,3.1576,3.1657,3.1543,3.1776,3.1851,3.1431,3.143,3.1429,3.1428,3.1427,3.0878,3.0968,3.1046,3.1283,3.1462,3.1543,3.1749,3.1784,3.1818,3.1898,3.1986,3.1985,3.1989,3.1937,3.1939,3.194,3.194,3.1941,3.1942,3.109,3.1176,3.1344,3.1519,3.1627,3.1775,3.1914,3.2024,3.2154,3.2163,3.2164,3.2153,3.179,3.1699,3.1957,3.1954,3.1952,3.1951,3.195,3.1489,3.1406,3.1665,3.1774,3.1985,3.2163,3.2205,3.2426,3.2521,3.2623,3.2597,3.2322,3.2312,3.2284,3.2209,3.2584,3.2584,3.2584,3.2584,3.1688,3.1686,3.1962,3.2135,3.2309,3.2375,3.2673,3.2785,3.2889,3.2952,3.2903,3.2806,3.2777,3.2784,3.2746,3.2677,3.3162,3.3163,3.3163,3.1937,3.1954,3.2198,3.2297,3.2466,3.2611,3.2893,3.3096,3.3197,3.3188,3.3003,3.2979,3.2823,3.277,3.2754,3.2694,3.2567,0,0]},{"header":{"parameterUnit":"m.s-1","parameterCategory":1,"la1":30.2992,"la2":30.254,"lo1":-89.0895,"lo2":-89.0443,"dy":0.0025,"dx":0.0025,"nx":19,"ny":19,"refTime":"2026-04-19T09:00:00:Z","depth":0,"parameterNumber":3,"parameterNumberName":"V-component_of_WINDS"},"data":[0,0,0,-2.1847,-2.1844,-2.1722,-2.1722,-2.1542,-2.1541,0,0,0,0,0,0,0,0,0,0,0,-2.1875,-2.1873,-2.1847,-2.1844,-2.1722,-2.1722,-2.1543,-2.1541,0,0,0,0,0,0,0,0,0,0,0,-2.1875,-2.1874,-2.1872,-2.1843,-2.1722,-2.1722,-2.1543,-2.1642,0,0,0,0,0,0,0,0,0,0,-2.1764,-2.1783,-2.1874,-2.1872,-2.1843,-2.1722,-2.1722,-2.1647,-2.1636,-2.159,0,-2.1552,0,-2.1544,-2.1528,-2.1527,0,0,0,-2.1848,-2.1792,-2.1768,-2.1872,-2.1842,-2.1723,-2.1778,-2.1641,-2.1628,-2.1575,-2.1549,-2.1543,-2.1541,-2.1527,-2.1526,-2.1259,-2.1257,0,0,-2.1855,-2.1847,-2.1777,-2.1759,-2.1783,-2.1782,-2.1775,-2.1634,-2.1603,-2.1549,-2.1539,-2.1538,-2.1525,-2.1524,-2.126,-2.1258,0,0,0,-2.1871,-2.1851,-2.1831,-2.1766,-2.1746,-2.1779,-2.177,-2.1609,-2.1604,-2.1537,-2.1536,-2.1524,-2.1522,-2.1262,-2.126,-2.118,0,0,0,-2.1876,-2.1861,-2.1833,-2.1827,-2.1749,-2.1677,-2.1748,-2.1613,-2.1598,-2.1537,-2.1524,-2.152,-2.1263,-2.1261,-2.1186,-2.1141,0,0,0,-2.1885,-2.1862,-2.1843,-2.1827,-2.1775,-2.168,-2.1666,-2.161,-2.1596,-2.1527,-2.1519,-2.1265,-2.1261,-2.1191,-2.1149,-2.1066,0,0,0,-2.1891,-2.1771,-2.1841,-2.1706,-2.1776,-2.1635,-2.1667,-2.1562,-2.1493,-2.1523,-2.1263,-2.126,-2.1192,-2.1155,-2.1072,-2.0992,-2.096,0,0,-2.1734,-2.1752,-2.1673,-2.1732,-2.1578,-2.1654,-2.1485,-2.1427,-2.1425,-2.1313,-2.1307,-2.1184,-2.115,-2.1068,-2.079,-2.0764,0,0,0,-2.162,-2.1563,-2.1524,-2.1461,-2.1419,-2.1376,-2.1347,-2.1325,-2.1231,-2.1369,-2.1134,-2.1114,-2.1066,-2.1028,-2.1006,-2.0963,-2.1243,-2.1244,-2.1244,-2.1381,-2.1391,-2.126,-2.1255,-2.1193,-2.1166,-2.1115,-2.108,-2.1104,-2.1049,-2.1013,-2.0845,-2.08,-2.0784,-2.0739,-2.0977,-2.0976,-2.0976,-2.0976,-2.1148,-2.1066,-2.1107,-2.0994,-2.1003,-2.0906,-2.0875,-2.0895,-2.0802,-2.0872,-2.083,-2.09,-2.0755,-2.0716,-2.097,-2.0971,-2.0972,-2.0972,-2.0973,-2.0988,-2.0951,-2.0932,-2.0843,-2.0772,-2.0771,-2.0681,-2.0693,-2.0702,-2.0661,-2.0622,-2.0623,-2.0622,-2.0643,-2.0643,-2.0642,-2.0642,-2.0641,-2.0641,-2.0828,-2.081,-2.0735,-2.0683,-2.0644,-2.0594,-2.0567,-2.0527,-2.0485,-2.05,-2.05,-2.0526,-2.0743,-2.0794,-2.0631,-2.0633,-2.0634,-2.0635,-2.0636,-2.0579,-2.0638,-2.0523,-2.0485,-2.0423,-2.0351,-2.037,-2.0288,-2.0257,-2.0211,-2.0249,-2.041,-2.0425,-2.0443,-2.0485,-2.0252,-2.0252,-2.0251,-2.0251,-2.044,-2.0453,-2.0338,-2.0276,-2.0216,-2.0223,-2.0087,-2.0065,-2.0049,-2.0029,-2.0066,-2.0125,-2.0143,-2.0147,-2.0171,-2.021,-1.9912,-1.9912,-1.9912,-2.0285,-2.0293,-2.0177,-2.017,-2.0123,-2.008,-1.9952,-1.9874,-1.9869,-1.9898,-2.0013,-2.0027,-2.0122,-2.0154,-2.0179,-2.0215,-2.0287,0,0]}]]